C/2024 A1 ( ATLAS )

Japanese version
Home page
Updated on November 26, 2024

---------------------------------------------------------------------

* Profile

Discovery Date January 3, 2024
Magnitude 18.8 mag
Discoverer Asteroid Terrestrial-Impact Last Alert System (ATLAS) search program

* Pictures

* Orbital Elements

Epoch 2024 Oct. 17.0 TT = JDT 2460600.5
T 2025 June 13.70689 TT                                 Rudenko
q   3.8754982            (2000.0)            P               Q
z  -0.0003696      Peri.  353.30632     -0.38269404     +0.02738978
 +/-0.0000012      Node   112.14135     +0.88713227     -0.26819445
e   1.0014323      Incl.   94.44646     +0.25795661     +0.96297536
From 390 observations 2024 Jan. 3-Nov. 13, mean residual 0".5.

* Finding Charts

* Magnitudes Graph

        m1 = 6.5 + 5 log d + 10.0 log r

---------------------------------------------------------------------

The orbital elements are published on M.P.E.C. 2024-V192.
The charts are made with StellaNavigator Ver.11 (AstroArts).
The magnitudes graphs are made with Comet for Windows.

---------------------------------------------------------------------

Copyright(C) Seiichi Yoshida (comet@aerith.net). All rights reserved.